| time (UTC) | temp C | wind direction | speed KPH | gust KPH | rain 1hr cm | rain 24hr cm | rain mn cm | humidity % | barometer mb |
| 20260504024732 | 10 | 176 | 3.2 | 4.8 | 0.00 | 0.00 | 0.00 | 74 | 1020.4 |
| 20260504024229 | 10 | 263 | 1.6 | 1.6 | 0.00 | 0.00 | 0.00 | 74 | 1020.3 |
| 20260504023726 | 10 | 161 | 4.8 | 8.0 | 0.00 | 0.00 | 0.00 | 74 | 1020.3 |
| 20260504023222 | 10 | 201 | 3.2 | 3.2 | 0.00 | 0.00 | 0.00 | 73 | 1020.4 |
| 20260504022718 | 10 | 213 | 3.2 | 3.2 | 0.00 | 0.00 | 0.00 | 73 | 1020.2 |
| 20260504022214 | 10 | 199 | 1.6 | 3.2 | 0.00 | 0.00 | 0.00 | 73 | 1020.4 |
| 20260504021712 | 10 | 198 | 1.6 | 3.2 | 0.00 | 0.00 | 0.00 | 73 | 1020.3 |
| 20260504021209 | 10 | 244 | 0.0 | 0.0 | 0.00 | 0.00 | 0.00 | 73 | 1020.1 |
| 20260504020706 | 10 | 262 | 0.0 | 0.0 | 0.00 | 0.00 | 0.00 | 74 | 1020.0 |
| 20260504020201 | 10 | 262 | 0.0 | 0.0 | 0.00 | 0.00 | 0.00 | 74 | 1019.9 |
| 20260504015658 | 10 | 265 | 0.0 | 0.0 | 0.00 | 0.00 | 0.00 | 74 | 1019.9 |
| 20260504015154 | 10 | 272 | 0.0 | 0.0 | 0.00 | 0.00 | 0.00 | 73 | 1019.9 |
| 20260504014650 | 10 | 272 | 0.0 | 0.0 | 0.00 | 0.00 | 0.00 | 72 | 1020.0 |
| 20260504014148 | 10 | 272 | 0.0 | 0.0 | 0.00 | 0.00 | 0.00 | 71 | 1020.0 |
| 20260504013645 | 11 | 272 | 0.0 | 0.0 | 0.00 | 0.00 | 0.00 | 69 | 1019.8 |
| 20260504013142 | 11 | 272 | 0.0 | 0.0 | 0.00 | 0.00 | 0.00 | 68 | 1019.7 |
| 20260504012639 | 11 | 238 | 0.0 | 0.0 | 0.00 | 0.00 | 0.00 | 67 | 1019.8 |
| 20260504012137 | 11 | 287 | 0.0 | 0.0 | 0.00 | 0.00 | 0.00 | 65 | 1019.4 |
| 20260504011633 | 11 | 213 | 3.2 | 4.8 | 0.00 | 0.00 | 0.00 | 65 | 1019.7 |
| 20260504011130 | 11 | 277 | 0.0 | 0.0 | 0.00 | 0.00 | 0.00 | 64 | 1019.6 |
| 20260504010626 | 11 | 241 | 0.0 | 0.0 | 0.00 | 0.00 | 0.00 | 63 | 1019.7 |
| 20260504010122 | 10 | 286 | 0.0 | 0.0 | 0.00 | 0.00 | 0.00 | 66 | 1019.2 |
| 20260504005619 | 10 | 279 | 0.0 | 0.0 | 0.00 | 0.00 | 0.00 | 67 | 1019.2 |
| 20260504005116 | 10 | 281 | 0.0 | 0.0 | 0.00 | 0.00 | 0.00 | 66 | 1018.9 |
| 20260504004614 | 11 | 281 | 0.0 | 0.0 | 0.00 | 0.00 | 0.00 | 65 | 1019.1 |
| 20260504004111 | 11 | 281 | 0.0 | 0.0 | 0.00 | 0.00 | 0.00 | 64 | 1019.0 |
| 20260504003607 | 11 | 273 | 0.0 | 0.0 | 0.00 | 0.00 | 0.00 | 64 | 1018.8 |
| 20260504003104 | 11 | 281 | 0.0 | 0.0 | 0.00 | 0.00 | 0.00 | 63 | 1018.8 |
| 20260504002601 | 11 | 281 | 0.0 | 0.0 | 0.00 | 0.00 | 0.00 | 62 | 1018.9 |
| 20260504002058 | 12 | 287 | 0.0 | 0.0 | 0.00 | 0.00 | 0.00 | 59 | 1018.4 |
| 20260504001556 | 12 | 286 | 0.0 | 0.0 | 0.00 | 0.00 | 0.00 | 58 | 1018.4 |
| 20260504001051 | 12 | 308 | 0.0 | 0.0 | 0.00 | 0.00 | 0.00 | 57 | 1018.4 |
| 20260504000549 | 12 | 308 | 0.0 | 0.0 | 0.00 | 0.00 | 0.00 | 56 | 1018.5 |
| 20260504000046 | 13 | 317 | 0.0 | 0.0 | 0.00 | 0.00 | 0.00 | 54 | 1018.3 |
| 20260503235545 | 13 | 296 | 0.0 | 0.0 | 0.00 | 0.00 | 0.00 | 52 | 1018.3 |
| 20260503235041 | 13 | 297 | 0.0 | 0.0 | 0.00 | 0.00 | 0.00 | 50 | 1018.3 |
| 20260503234538 | 13 | 297 | 0.0 | 0.0 | 0.00 | 0.00 | 0.00 | 49 | 1018.3 |
| 20260503234037 | 14 | 301 | 0.0 | 0.0 | 0.00 | 0.00 | 0.00 | 46 | 1018.3 |
| 20260503233533 | 15 | 297 | 0.0 | 0.0 | 0.00 | 0.00 | 0.00 | 44 | 1018.2 |
| 20260503233029 | 15 | 297 | 0.0 | 0.0 | 0.00 | 0.00 | 0.00 | 42 | 1018.1 |
| 20260503232526 | 15 | 280 | 0.0 | 1.6 | 0.00 | 0.00 | 0.00 | 43 | 1018.1 |
| 20260503232024 | 15 | 308 | 0.0 | 0.0 | 0.00 | 0.00 | 0.00 | 44 | 1017.9 |
| 20260503231521 | 15 | 321 | 0.0 | 0.0 | 0.00 | 0.00 | 0.00 | 44 | 1017.8 |
| 20260503231018 | 15 | 308 | 0.0 | 0.0 | 0.00 | 0.00 | 0.00 | 43 | 1017.7 |
| 20260503230514 | 15 | 314 | 0.0 | 0.0 | 0.00 | 0.00 | 0.00 | 44 | 1017.9 |
| 20260503230012 | 15 | 319 | 0.0 | 0.0 | 0.00 | 0.00 | 0.00 | 43 | 1017.9 |
| 20260503225509 | 15 | 2 | 0.0 | 0.0 | 0.00 | 0.00 | 0.00 | 42 | 1018.1 |
| 20260503225004 | 15 | 297 | 0.0 | 0.0 | 0.00 | 0.00 | 0.00 | 41 | 1018.0 |
| 20260503224502 | 15 | 304 | 0.0 | 0.0 | 0.00 | 0.00 | 0.00 | 42 | 1018.1 |
| 20260503223959 | 16 | 330 | 0.0 | 0.0 | 0.00 | 0.00 | 0.00 | 42 | 1017.9 |
| 20260503223457 | 16 | 308 | 0.0 | 0.0 | 0.00 | 0.00 | 0.00 | 38 | 1017.9 |
| 20260503222952 | 16 | 292 | 0.0 | 0.0 | 0.00 | 0.00 | 0.00 | 39 | 1018.0 |
| 20260503222451 | 16 | 324 | 0.0 | 0.0 | 0.00 | 0.00 | 0.00 | 38 | 1018.3 |
| 20260503221949 | 16 | 224 | 3.2 | 8.0 | 0.00 | 0.00 | 0.00 | 35 | 1017.9 |
| 20260503221447 | 16 | 289 | 1.6 | 1.6 | 0.00 | 0.00 | 0.00 | 36 | 1017.8 |
| 20260503220943 | 16 | 254 | 6.4 | 8.0 | 0.00 | 0.00 | 0.00 | 36 | 1017.8 |
| 20260503220439 | 16 | 312 | 0.0 | 1.6 | 0.00 | 0.00 | 0.00 | 37 | 1017.8 |
| 20260503215937 | 16 | 288 | 1.6 | 3.2 | 0.00 | 0.00 | 0.00 | 36 | 1017.9 |
| 20260503215433 | 16 | 247 | 3.2 | 4.8 | 0.00 | 0.00 | 0.00 | 36 | 1017.9 |
| 20260503214931 | 16 | 313 | 0.0 | 1.6 | 0.00 | 0.00 | 0.00 | 36 | 1017.9 |
| 20260503214429 | 16 | 290 | 0.0 | 1.6 | 0.00 | 0.00 | 0.00 | 36 | 1017.9 |
| 20260503213926 | 16 | 326 | 3.2 | 3.2 | 0.00 | 0.00 | 0.00 | 35 | 1018.0 |
| 20260503213424 | 16 | 301 | 1.6 | 1.6 | 0.00 | 0.00 | 0.00 | 34 | 1017.9 |
| 20260503212920 | 16 | 305 | 1.6 | 3.2 | 0.00 | 0.00 | 0.00 | 37 | 1017.8 |
| 20260503212418 | 16 | 337 | 1.6 | 1.6 | 0.00 | 0.00 | 0.00 | 37 | 1017.8 |
| 20260503211915 | 16 | 297 | 3.2 | 4.8 | 0.00 | 0.00 | 0.00 | 38 | 1017.8 |
| 20260503211412 | 16 | 341 | 3.2 | 3.2 | 0.00 | 0.00 | 0.00 | 37 | 1017.9 |
| 20260503210907 | 16 | 329 | 0.0 | 0.0 | 0.00 | 0.00 | 0.00 | 36 | 1017.8 |
| 20260503210405 | 16 | 315 | 1.6 | 3.2 | 0.00 | 0.00 | 0.00 | 35 | 1017.8 |
| 20260503205904 | 17 | 330 | 0.0 | 0.0 | 0.00 | 0.00 | 0.00 | 35 | 1017.7 |
| 20260503205402 | 17 | 299 | 0.0 | 0.0 | 0.00 | 0.00 | 0.00 | 36 | 1017.7 |
| 20260503204858 | 16 | 322 | 0.0 | 1.6 | 0.00 | 0.00 | 0.00 | 34 | 1017.6 |
| 20260503204356 | 16 | 280 | 1.6 | 1.6 | 0.00 | 0.00 | 0.00 | 35 | 1017.9 |
| 20260503203853 | 16 | 288 | 4.8 | 4.8 | 0.00 | 0.00 | 0.00 | 35 | 1018.0 |
| 20260503203350 | 17 | 279 | 1.6 | 3.2 | 0.00 | 0.00 | 0.00 | 37 | 1017.9 |
| 20260503202847 | 16 | 324 | 0.0 | 1.6 | 0.00 | 0.00 | 0.00 | 39 | 1017.9 |
| 20260503202345 | 16 | 296 | 4.8 | 4.8 | 0.00 | 0.00 | 0.00 | 37 | 1018.1 |
| 20260503201843 | 16 | 297 | 0.0 | 0.0 | 0.00 | 0.00 | 0.00 | 38 | 1017.9 |
| 20260503201340 | 16 | 297 | 1.6 | 1.6 | 0.00 | 0.00 | 0.00 | 39 | 1018.1 |
| 20260503200837 | 16 | 303 | 3.2 | 3.2 | 0.00 | 0.00 | 0.00 | 37 | 1018.2 |
| 20260503200333 | 16 | 283 | 0.0 | 0.0 | 0.00 | 0.00 | 0.00 | 46 | 1018.2 |
| 20260503195830 | 16 | 309 | 1.6 | 3.2 | 0.00 | 0.00 | 0.00 | 39 | 1018.1 |
| 20260503195327 | 16 | 55 | 0.0 | 0.0 | 0.00 | 0.00 | 0.00 | 40 | 1018.2 |
| 20260503194824 | 16 | 310 | 4.8 | 9.7 | 0.00 | 0.00 | 0.00 | 39 | 1018.3 |
| 20260503194320 | 16 | 314 | 0.0 | 1.6 | 0.00 | 0.00 | 0.00 | 41 | 1018.2 |
| 20260503193816 | 15 | 300 | 0.0 | 0.0 | 0.00 | 0.00 | 0.00 | 44 | 1018.4 |
| 20260503193312 | 16 | 34 | 4.8 | 4.8 | 0.00 | 0.00 | 0.00 | 41 | 1018.4 |
| 20260503192808 | 15 | 304 | 1.6 | 3.2 | 0.00 | 0.00 | 0.00 | 41 | 1018.6 |
| 20260503192305 | 16 | 353 | 4.8 | 4.8 | 0.00 | 0.00 | 0.00 | 40 | 1018.5 |
| 20260503191800 | 16 | 250 | 1.6 | 3.2 | 0.00 | 0.00 | 0.00 | 40 | 1018.8 |
| 20260503191257 | 16 | 298 | 0.0 | 0.0 | 0.00 | 0.00 | 0.00 | 42 | 1018.6 |
| 20260503190754 | 15 | 321 | 0.0 | 0.0 | 0.00 | 0.00 | 0.00 | 42 | 1018.9 |
| 20260503190251 | 15 | 268 | 1.6 | 4.8 | 0.00 | 0.00 | 0.00 | 41 | 1018.8 |
| 20260503185748 | 16 | 217 | 1.6 | 3.2 | 0.00 | 0.00 | 0.00 | 39 | 1018.8 |
| 20260503185244 | 15 | 347 | 6.4 | 9.7 | 0.00 | 0.00 | 0.00 | 41 | 1019.0 |
| 20260503184738 | 15 | 354 | 3.2 | 4.8 | 0.00 | 0.00 | 0.00 | 40 | 1018.9 |
| 20260503184235 | 15 | 317 | 1.6 | 1.6 | 0.00 | 0.00 | 0.00 | 40 | 1018.7 |
| 20260503183731 | 15 | 297 | 1.6 | 3.2 | 0.00 | 0.00 | 0.00 | 40 | 1018.8 |
| 20260503183229 | 15 | 311 | 0.0 | 0.0 | 0.00 | 0.00 | 0.00 | 40 | 1018.8 |
| 20260503182726 | 15 | 307 | 1.6 | 1.6 | 0.00 | 0.00 | 0.00 | 40 | 1018.6 |
| 20260503182225 | 15 | 343 | 4.8 | 11.3 | 0.00 | 0.00 | 0.00 | 41 | 1019.0 |
| 20260503181722 | 15 | 311 | 1.6 | 1.6 | 0.00 | 0.00 | 0.00 | 41 | 1019.3 |
| 20260503181219 | 14 | 311 | 0.0 | 0.0 | 0.00 | 0.00 | 0.00 | 44 | 1019.0 |
| 20260503180715 | 14 | 283 | 1.6 | 4.8 | 0.00 | 0.00 | 0.00 | 43 | 1019.1 |
| 20260503180214 | 14 | 302 | 3.2 | 8.0 | 0.00 | 0.00 | 0.00 | 43 | 1019.0 |
| 20260503175710 | 15 | 330 | 1.6 | 1.6 | 0.00 | 0.00 | 0.00 | 42 | 1019.0 |
| 20260503175208 | 15 | 347 | 3.2 | 4.8 | 0.00 | 0.00 | 0.00 | 41 | 1019.0 |
| 20260503174703 | 15 | 249 | 0.0 | 0.0 | 0.00 | 0.00 | 0.00 | 42 | 1019.1 |
| 20260503174201 | 14 | 334 | 1.6 | 3.2 | 0.00 | 0.00 | 0.00 | 41 | 1019.1 |
| 20260503173656 | 13 | 358 | 0.0 | 1.6 | 0.00 | 0.00 | 0.00 | 43 | 1019.3 |
| 20260503173152 | 13 | 296 | 4.8 | 4.8 | 0.00 | 0.00 | 0.00 | 41 | 1019.2 |
| 20260503172650 | 13 | 319 | 4.8 | 4.8 | 0.00 | 0.00 | 0.00 | 43 | 1019.2 |
| 20260503172147 | 13 | 338 | 1.6 | 3.2 | 0.00 | 0.00 | 0.00 | 43 | 1019.1 |
| 20260503171643 | 13 | 277 | 3.2 | 3.2 | 0.00 | 0.00 | 0.00 | 42 | 1019.3 |
| 20260503171141 | 13 | 33 | 3.2 | 4.8 | 0.00 | 0.00 | 0.00 | 44 | 1019.4 |
| 20260503170638 | 14 | 29 | 4.8 | 8.0 | 0.00 | 0.00 | 0.00 | 42 | 1019.5 |
| 20260503170134 | 13 | 246 | 8.0 | 11.3 | 0.00 | 0.00 | 0.00 | 40 | 1019.4 |
| 20260503150526 | 12 | 334 | 4.8 | 4.8 | 0.00 | 0.00 | 0.00 | 48 | 1020.0 |
| 20260503131419 | 12 | 351 | 1.6 | 1.6 | 0.00 | 0.00 | 0.00 | 56 | 1019.3 |
| 20260503130916 | 12 | 320 | 0.0 | 0.0 | 0.00 | 0.00 | 0.00 | 59 | 1019.5 |
| 20260503130413 | 12 | 281 | 4.8 | 4.8 | 0.00 | 0.00 | 0.00 | 58 | 1019.3 |
| 20260503110817 | 11 | 329 | 1.6 | 1.6 | 0.00 | 0.00 | 0.00 | 57 | 1018.0 |
| 20260503110314 | 11 | 336 | 1.6 | 3.2 | 0.00 | 0.00 | 0.00 | 57 | 1017.8 |
| 20260503100240 | 11 | 305 | 0.0 | 1.6 | 0.00 | 0.00 | 0.00 | 60 | 1016.7 |
| 20260503090200 | 12 | 4 | 3.2 | 3.2 | 0.00 | 0.00 | 0.00 | 61 | 1015.7 |
| 20260503081630 | 12 | 0 | 1.6 | 3.2 | 0.00 | 0.00 | 0.00 | 69 | 1015.1 |
| 20260503081127 | 12 | 328 | 0.0 | 1.6 | 0.00 | 0.00 | 0.00 | 68 | 1014.9 |
| 20260503080623 | 12 | 319 | 3.2 | 4.8 | 0.00 | 0.00 | 0.00 | 67 | 1014.9 |
| 20260503080120 | 12 | 325 | 3.2 | 4.8 | 0.00 | 0.00 | 0.00 | 66 | 1015.0 |
| 20260503072557 | 12 | 310 | 0.0 | 1.6 | 0.00 | 0.00 | 0.00 | 62 | 1014.8 |
| 20260503072054 | 12 | 333 | 0.0 | 1.6 | 0.00 | 0.00 | 0.00 | 63 | 1014.7 |
| 20260503071550 | 12 | 316 | 0.0 | 0.0 | 0.00 | 0.00 | 0.00 | 63 | 1014.5 |
| 20260503071047 | 12 | 292 | 1.6 | 1.6 | 0.00 | 0.00 | 0.00 | 64 | 1014.3 |
| 20260503070543 | 12 | 307 | 0.0 | 0.0 | 0.00 | 0.00 | 0.00 | 67 | 1014.2 |
| 20260503054957 | 12 | 322 | 0.0 | 0.0 | 0.00 | 0.00 | 0.00 | 70 | 1013.8 |
| 20260503054453 | 12 | 293 | 0.0 | 0.0 | 0.00 | 0.00 | 0.00 | 71 | 1014.0 |
| 20260503053951 | 12 | 321 | 0.0 | 0.0 | 0.00 | 0.00 | 0.00 | 72 | 1013.9 |
| 20260503053449 | 12 | 298 | 0.0 | 0.0 | 0.00 | 0.00 | 0.00 | 72 | 1014.4 |
| 20260503052945 | 12 | 339 | 0.0 | 0.0 | 0.00 | 0.00 | 0.00 | 73 | 1014.4 |
| 20260503052443 | 12 | 304 | 0.0 | 0.0 | 0.00 | 0.00 | 0.00 | 72 | 1014.3 |
| 20260503051938 | 12 | 318 | 0.0 | 0.0 | 0.00 | 0.00 | 0.00 | 72 | 1014.2 |
| 20260503051434 | 12 | 307 | 0.0 | 0.0 | 0.00 | 0.00 | 0.00 | 72 | 1014.2 |
| 20260503050932 | 12 | 306 | 0.0 | 0.0 | 0.00 | 0.00 | 0.00 | 72 | 1014.1 |
| 20260503050427 | 12 | 303 | 0.0 | 0.0 | 0.00 | 0.00 | 0.00 | 71 | 1014.2 |
| 20260503045926 | 12 | 327 | 1.6 | 1.6 | 0.00 | 0.00 | 0.00 | 71 | 1014.4 |
| 20260503045423 | 12 | 306 | 0.0 | 0.0 | 0.00 | 0.00 | 0.00 | 70 | 1014.1 |
| 20260503044919 | 12 | 301 | 0.0 | 0.0 | 0.00 | 0.00 | 0.00 | 70 | 1014.4 |
| 20260503044416 | 12 | 334 | 0.0 | 0.0 | 0.00 | 0.00 | 0.00 | 68 | 1014.2 |
| 20260503043914 | 12 | 303 | 0.0 | 1.6 | 0.00 | 0.00 | 0.00 | 66 | 1014.1 |
| 20260503043410 | 12 | 305 | 0.0 | 0.0 | 0.00 | 0.00 | 0.00 | 65 | 1014.2 |
| 20260503042907 | 13 | 315 | 0.0 | 0.0 | 0.00 | 0.00 | 0.00 | 65 | 1014.2 |
| 20260503042403 | 13 | 319 | 1.6 | 3.2 | 0.00 | 0.00 | 0.00 | 65 | 1014.2 |
| 20260503041859 | 13 | 313 | 0.0 | 0.0 | 0.00 | 0.00 | 0.00 | 65 | 1014.2 |
| 20260503041357 | 13 | 309 | 0.0 | 1.6 | 0.00 | 0.00 | 0.00 | 65 | 1014.2 |
| 20260503040854 | 13 | 319 | 0.0 | 0.0 | 0.00 | 0.00 | 0.00 | 65 | 1014.2 |
| 20260503040352 | 13 | 289 | 0.0 | 1.6 | 0.00 | 0.00 | 0.00 | 64 | 1014.5 |
| 20260503035848 | 13 | 306 | 0.0 | 0.0 | 0.00 | 0.00 | 0.00 | 63 | 1014.2 |
| 20260503035345 | 13 | 323 | 0.0 | 0.0 | 0.00 | 0.00 | 0.00 | 62 | 1014.1 |
| 20260503034843 | 13 | 326 | 0.0 | 0.0 | 0.00 | 0.00 | 0.00 | 63 | 1014.2 |
| 20260503034340 | 13 | 309 | 0.0 | 0.0 | 0.00 | 0.00 | 0.00 | 63 | 1014.4 |
| 20260503033837 | 13 | 327 | 0.0 | 0.0 | 0.00 | 0.00 | 0.00 | 62 | 1014.3 |
| 20260503033335 | 13 | 316 | 0.0 | 0.0 | 0.00 | 0.00 | 0.00 | 62 | 1014.1 |
| 20260503032832 | 13 | 317 | 0.0 | 0.0 | 0.00 | 0.00 | 0.00 | 62 | 1014.1 |
| 20260503032331 | 13 | 352 | 0.0 | 0.0 | 0.00 | 0.00 | 0.00 | 64 | 1014.0 |
| 20260503031828 | 13 | 312 | 0.0 | 0.0 | 0.00 | 0.00 | 0.00 | 63 | 1013.7 |
| 20260503031326 | 13 | 353 | 1.6 | 1.6 | 0.00 | 0.00 | 0.00 | 63 | 1014.0 |
| 20260503030822 | 13 | 321 | 0.0 | 0.0 | 0.00 | 0.00 | 0.00 | 64 | 1014.0 |
| 20260503030319 | 13 | 324 | 0.0 | 0.0 | 0.00 | 0.00 | 0.00 | 62 | 1014.3 |
| 20260503025815 | 13 | 301 | 1.6 | 1.6 | 0.00 | 0.00 | 0.00 | 62 | 1014.3 |
| 20260503025313 | 13 | 324 | 1.6 | 3.2 | 0.00 | 0.00 | 0.00 | 63 | 1014.2 |